Miscellaneous Local Product
Issued by NWS Hastings, NE

Home | Current Version | Previous Version | Graphics & Text | Print | Product List | Glossary On
Versions: 1 2 3 4 5 6 7 8 9 10 11 12 13 14 15 16 17 18 19 20 21 22 23 24 25 26 27 28 29 30 31 32 33 34 35 36 37 38 39 40 41 42 43 44 45 46 47 48 49 50
000
AXUS43 KGID 231302
MISGRI

GID CWA HOURLY WEATHER ROUNDUP
NATIONAL WEATHER SERVICE HASTINGS NE
800 AM CDT WED MAY 23 2018

NOTE: "FAIR" INDICATES FEW OR NO CLOUDS BELOW 12,000 FEET WITH NO
SIGNIFICANT WEATHER AND/OR OBSTRUCTIONS TO VISIBILITY.

...SOUTH CENTRAL NEBRASKA...

CITY           SKY/WX    TMP DP  RH WIND       PRES   REMARKS
GRAND ISLAND   CLOUDY    70  64  81 S12       30.02R
KEARNEY        CLOUDY    71  63  75 S10       30.01R
HASTINGS       MOSUNNY   69  64  84 SE12G18   30.03R
ORD            PTSUNNY   68  63  84 S9        29.97S
YORK           PTSUNNY   72  70  94 S13       30.04R
AURORA         CLOUDY    71  66  86 S13       30.03R
LEXINGTON      PTSUNNY   69  62  78 S15       29.99R
HOLDREGE       CLOUDY    67  62  84 S10       30.00S
HEBRON         CLOUDY    71  65  82 S9        30.05R

...NEBRASKA PANHANDLE...

CITY           SKY/WX    TMP DP  RH WIND       PRES   REMARKS
CHADRON        CLOUDY    57  56  96 SW10      29.95R
ALLIANCE       PTSUNNY   55  55 100 W10       29.97R
SCOTTSBLUFF    PTSUNNY   54  54 100 CALM      29.99R
SIDNEY         MOSUNNY   57  53  86 NW10      29.99R

...WESTERN AND NORTH CENTRAL NEBRASKA...

CITY           SKY/WX    TMP DP  RH WIND       PRES   REMARKS
VALENTINE      PTSUNNY   69  62  78 S7        29.91R
AINSWORTH      PTSUNNY   68  62  79 S14       29.92S
ONEILL         PTSUNNY   71  65  80 S12       29.97S
BROKEN BOW     PTSUNNY   68  61  78 SE12      29.98R
IMPERIAL       CLOUDY    65  59  81 SE9       29.97R
NORTH PLATTE   PTSUNNY   66  60  81 SE7       29.98R
MCCOOK         PTSUNNY   66  61  84 S6        29.99R

...EASTERN NEBRASKA...

CITY           SKY/WX    TMP DP  RH WIND       PRES   REMARKS
NORFOLK        MOSUNNY   72  66  81 SE12      29.99F
SO SIOUX CITY  MOSUNNY   68  64  87 SE12      30.02S
TEKAMAH        SUNNY     69  65  86 SE9       30.04R
COLUMBUS       SUNNY     73  65  75 MISG      30.02R
ALBION         CLOUDY    70  65  86 S8        30.01S
OMAHA EPPLEY   MOSUNNY   72  65  78 S8        30.05R
OFFUTT AFB     SUNNY     71  66  84 SE8       30.05R
MILLARD        SUNNY     72  67  83 SE8       30.06R
LINCOLN        SUNNY     73  66  78 S9        30.05R
NEBRASKA CITY  SUNNY     72  70  93 S10       30.07R
BEATRICE       PTSUNNY   74  67  80 S9        30.06R
FALLS CITY     MOSUNNY   71  65  81 S8        30.07R

...NORTHERN KANSAS...

CITY           SKY/WX    TMP DP  RH WIND       PRES   REMARKS
GOODLAND       CLOUDY    64  52  64 S16       30.00R
HILL CITY      MOSUNNY   69  63  81 SE6       30.01R
NORTON         SUNNY     70  63  78 SE12G17   29.99R
PHILLIPSBURG   SUNNY     72  61  68 S12       30.00R
SMITH CENTER     N/A     72  63  73 SE10      30.02R
RUSSELL        MOSUNNY   72  66  81 S15       30.02R
CONCORDIA      CLOUDY    71  66  84 S10       30.05R
SALINA         PTSUNNY   73  68  84 S7        30.05R
TOPEKA         SUNNY     71  69  93 SE5       30.08R



USA.gov is the U.S. government's official web portal to all federal, state and local government web resources and services.